Hourly Data Report for December 03, 2021

IQALUIT CLIMATE
NUNAVUT
Current Station Operator: ECCC - MSC

63°44'50.000" N
68°32'40.000" W
33.50 m
2402592
71321
XFB

Download Data

Hourly Data (December 2021)
Hourly Data Report for December 3, 2021
TIME
LST
Temp Definition
°C
Dew Point Definition
°C
Rel Hum Definition
%
Precip. Amount Definition
mm

Wind Dir Definition
10's deg

Wind Spd Definition
km/h
Visibility Definition
km
Stn Press Definition
kPa
Hmdx Definition


Wind Chill Definition


Weather Definition


00:00 -6.2 -11.2 68 0.0 15 4   99.26   -8 LegendNANA
01:00 -7.5 -11.4 74 0.0 2 8   99.25   -12 LegendNANA
02:00 -6.6 -12.7 62 0.0 17 13   99.25   -12 LegendNANA
03:00 -6.7 -11.8 67 0.0 18 14   99.25   -12 LegendNANA
04:00 -7.4 -11.6 72 0.0 23 3   99.23   -9 LegendNANA
05:00 -8.9 -12.6 75 0.0 5 6   99.22   -12 LegendNANA
06:00 -8.8 -12.2 77 0.0 13 3   99.22   -10 LegendNANA
07:00 -9.0 -12.8 74 0.0 32 1   99.21   -10 LegendNANA
08:00 -11.6 -14.4 80 0.0 4 8   99.20   -16 LegendNANA
09:00 -11.5 -15.0 75 0.0 4 9   99.19   -17 LegendNANA
10:00 -11.5 -14.9 76 0.0 3 8   99.15   -16 LegendNANA
11:00 -11.9 -15.3 76 0.0 4 11   99.11   -18 LegendNANA
12:00 -12.3 -15.6 77 0.0 2 12   99.07   -19 LegendNANA
13:00 -12.3 -15.8 76 0.0 4 17   99.02   -20 LegendNANA
14:00 -12.7 -16.0 76 0.0 3 13   99.00   -20 LegendNANA
15:00 -13.4 -16.5 77 0.0 2 12   98.99   -20 LegendNANA
16:00 -15.0 -18.0 78 0.0 36 12   98.94   -22 LegendNANA
17:00 -15.9 -18.8 78 0.0 34 9   98.90   -22 LegendNANA
18:00 -16.3 -19.1 79 0.0 36 12   98.82   -24 LegendNANA
19:00 -15.1 -18.2 77 0.0 29 7   98.77   -20 LegendNANA
20:00 -17.2 -20.2 78 0.2 32 21   98.69   -27 LegendNANA
21:00 -17.0 -19.9 78 0.0 32 21   98.59   -27 LegendNANA
22:00 -17.1 -20.2 77 0.0 32 24   98.47   -28 LegendNANA
23:00 -16.3 -19.7 75 0.0 34 19   98.37   -26 LegendNANA

Notes on Data Quality.

Legend

  • E = Estimated
  • M = Missing
  • NA = Not Available*
  • [empty] = Indicates an unobserved value
Date modified: